TimeCST,TemperatureF,Dew PointF,Humidity,Sea Level PressureIn,VisibilityMPH,Wind Direction,Wind SpeedMPH,Gust SpeedMPH,PrecipitationIn,Events,Conditions,WindDirDegrees,DateUTC
12:53 AM,15.1,10.9,84,30.35,10.0,Calm,Calm,-,N/A,,Mostly Cloudy,0,2013-02-16 06:53:00
1:53 AM,19.9,14.0,78,30.31,10.0,Calm,Calm,-,N/A,,Overcast,0,2013-02-16 07:53:00
2:53 AM,21.9,15.1,75,30.28,10.0,SSW,3.5,-,N/A,,Overcast,200,2013-02-16 08:53:00
3:53 AM,23.0,16.0,74,30.25,10.0,SSW,4.6,-,N/A,,Overcast,200,2013-02-16 09:53:00
4:53 AM,24.1,16.0,71,30.20,10.0,SSW,6.9,-,N/A,,Overcast,210,2013-02-16 10:53:00
5:53 AM,25.0,18.0,75,30.16,10.0,SSW,5.8,-,N/A,,Overcast,200,2013-02-16 11:53:00
6:53 AM,28.0,19.9,72,30.13,10.0,WSW,4.6,-,N/A,,Overcast,240,2013-02-16 12:53:00
7:53 AM,28.9,21.9,75,30.12,10.0,West,5.8,-,N/A,,Overcast,260,2013-02-16 13:53:00
8:53 AM,33.1,24.1,70,30.10,10.0,West,9.2,-,N/A,,Overcast,280,2013-02-16 14:53:00
9:53 AM,39.9,24.1,53,30.09,10.0,WNW,15.0,-,N/A,,Clear,290,2013-02-16 15:53:00
10:53 AM,46.0,26.1,46,30.08,10.0,WNW,16.1,-,N/A,,Clear,290,2013-02-16 16:53:00
11:53 AM,50.0,26.1,39,30.07,10.0,NW,19.6,28.8,N/A,,Clear,310,2013-02-16 17:53:00
12:53 PM,53.1,27.0,37,30.06,10.0,WNW,21.9,28.8,N/A,,Clear,300,2013-02-16 18:53:00
1:53 PM,54.0,27.0,35,30.03,10.0,WNW,19.6,26.5,N/A,,Clear,290,2013-02-16 19:53:00
2:53 PM,55.0,27.0,34,30.00,10.0,NW,21.9,33.4,N/A,,Clear,320,2013-02-16 20:53:00
3:53 PM,55.9,28.0,34,30.00,10.0,NW,18.4,-,N/A,,Clear,320,2013-02-16 21:53:00
4:53 PM,53.1,28.0,38,29.99,10.0,NW,15.0,-,N/A,,Clear,320,2013-02-16 22:53:00
5:53 PM,48.9,28.0,44,29.99,10.0,NW,9.2,-,N/A,,Clear,310,2013-02-16 23:53:00
6:53 PM,36.0,25.0,64,30.01,10.0,WNW,4.6,-,N/A,,Clear,290,2013-02-17 00:53:00
7:53 PM,30.9,24.1,76,30.01,10.0,Calm,Calm,-,N/A,,Clear,0,2013-02-17 01:53:00
8:53 PM,28.9,23.0,78,30.00,10.0,Calm,Calm,-,N/A,,Clear,0,2013-02-17 02:53:00
9:53 PM,27.0,24.1,89,29.99,10.0,Calm,Calm,-,N/A,,Clear,0,2013-02-17 03:53:00
10:53 PM,25.0,21.9,88,29.98,10.0,WNW,3.5,-,N/A,,Clear,300,2013-02-17 04:53:00
11:53 PM,23.0,19.9,88,29.97,10.0,NW,4.6,-,N/A,,Clear,310,2013-02-17 05:53:00